Location: Gleizolles
(44.4833°N, 6.7667°E)
Time: 03:14:00
(UTC+00:00)

Vanguard 1 Rocket - Pass Details

Date: 27 June 2024
Orbit: 650 x 4219 km, 34.3° (Epoch: 15 July)

Event Time Altitude Azimuth Distance (km) Brightness Sun altitude
Rises 02:05:27 0° 256° (WSW) 5,459 - -14.1°
Exits shadow 02:06:11 - 255° (WSW) 5,292 10.8 -14.0°
Reaches altitude 10° 02:08:24 10° 253° (WSW) 4,821 10.6 -13.8°
Maximum altitude 02:23:23 62° 177° (S) 3,658 10.2 -12.2°
Drops below altitude 10° 02:48:02 10° 105° (ESE) 7,422 12.4 -9.3°
Sets 02:54:00 0° 103° (ESE) 8,427 12.8 -8.5°
